Content
SEND FEEDBACK

Daily
Averages
Monthly
Summary
United States of America

KINSTON, NORTH CAROLINA


Home > North America > United States > North Carolina
Elevation: 25 meters     Latitude: 35 19N     Longitude: 077 37W

WEATHER
 
SELECT A DAY
Number of Records: 229,259;   Date Range: 1/1/95 - 9/21/14
 
SHARE

PRINT THIS DATA

[ ← Previous Day ]
WEATHER ALMANAC - 31 JANUARY, 2013
[ Next Day → ]
[ °F ]   °C
Weather ElementAverageHighLow
Temperature10.3 °C21.3 °C (1:15 am)1 °C (11:55 pm)
Dewpoint3.1 °C17.9 °C (12:55 am)-8 °C (2:56 pm)
Humidity64.4 %92 % (2:35 am)24 % (2:56 pm)
Barometer1008.5 hPa1017.9 hPa (11:55 pm)998 hPa (1:15 am)
Wind Speed18.8 km/h42.6 km/h (12:35 am)
Wind Gust66.6 km/h (1:55 am)
Weather ElementAverage
Visibility14.8 km
Wind DirectionSSW (192.2 °)

Weather ElementTotal
Precipitation10.92 mm
Heating Degree Days7.2 (Base 18.3)
Growing Degree Days1.2 (Base 10)
Averaged from 41 records on 31 January, 2013
WEATHER CONDITIONS BREAKOUT
WIND DIRECTION BREAKOUT
WEATHER BY HOUR - 31 JANUARY, 2013
[ °F ]   °C
Local TimeTemperatureDewpointHumidityBarometerVisibilityWind DirectionWind SpeedGust SpeedPrecipitationEventsConditions
12:35 AM20.7 °C17.7 °C83 %999 hPa11.3 kmSouth (180°)42.6 km/h62.9 km/hRainLight Rain
12:55 AM20.6 °C17.9 °C84 %998.3 hPa11.3 kmSouth (180°)42.6 km/h57.5 km/hLight Drizzle
1:15 AM21.3 °C17.8 °C80 %998 hPa16.1 kmSouth (180°)40.7 km/h53.8 km/hMostly Cloudy
1:35 AM20.4 °C17.7 °C84 %1000 hPa4 kmSW (230°)42.6 km/h59.2 km/h3.56 mmRainHeavy Rain
1:55 AM15.4 °C13.2 °C87 %1000 hPa8 kmWSW (250°)33.3 km/h66.6 km/h5.33 mmRainLight Rain
2:15 AM14.6 °C13 °C90 %1001 hPa11.3 kmWSW (250°)16.7 km/h38.9 km/hRainLight Rain
2:35 AM14.2 °C13 °C92 %1001 hPa8 kmSW (230°)22.2 km/h33.3 km/h0.51 mmRainRain
2:55 AM13.5 °C12 °C91 %1001 hPa8 kmSW (230°)31.5 km/h44.4 km/h1.02 mmRainLight Rain
3:15 AM12.7 °C11.1 °C90 %1001.4 hPa16.1 kmSW (230°)22.2 km/h42.6 km/hRainLight Rain
3:35 AM12.4 °C11.1 °C92 %1001.4 hPa11.3 kmSW (220°)25.9 km/h42.6 km/h0.25 mmRainRain
3:55 AM11.8 °C9.8 °C88 %1001.7 hPa16.1 kmSW (220°)22.2 km/h40.7 km/h0.25 mmMostly Cloudy
4:15 AM12 °C9.2 °C83 %1001.7 hPa16.1 kmSW (230°)27.8 km/h42.6 km/hMostly Cloudy
4:35 AM12.1 °C8.6 °C79 %1002 hPa16.1 kmWSW (240°)25.9 km/h46.3 km/hScattered Clouds
4:55 AM12 °C8 °C77 %1002.7 hPa16.1 kmSW (230°)24.1 km/h42.6 km/hClear
5:15 AM11.8 °C7.7 °C76 %1002.7 hPa16.1 kmSW (230°)24.1 km/h42.6 km/hClear
5:35 AM11.6 °C7.8 °C78 %1003.4 hPa16.1 kmWSW (240°)25.9 km/h37 km/hClear
5:55 AM12 °C7.3 °C73 %1003.7 hPa16.1 kmWSW (240°)31.5 km/h46.3 km/hScattered Clouds
6:56 AM11 °C5 °C67 %1005.4 hPa16.1 kmSW (230°)22.2 km/h29.6 km/hMostly Cloudy
7:56 AM11 °C4 °C62 %1007.1 hPa16.1 kmWSW (240°)18.5 km/h42.6 km/hMostly Cloudy
8:56 AM10 °C4 °C66 %1008.5 hPa16.1 kmWSW (250°)18.5 km/h31.5 km/hMostly Cloudy
9:56 AM10 °C2 °C58 %1009.8 hPa16.1 kmWSW (250°)29.6 km/h44.4 km/hScattered Clouds
10:56 AM11 °C-5 °C33 %1010.8 hPa16.1 kmWest (280°)27.8 km/h37 km/hClear
11:56 AM11 °C-5 °C33 %1011.2 hPa16.1 kmWest (280°)24.1 km/h37 km/hClear
12:56 PM12 °C-7 °C26 %1010.8 hPa16.1 kmWest (280°)25.9 km/h42.6 km/hClear
1:56 PM13 °C-5 °C29 %1010.5 hPa16.1 kmWest (260°)22.2 km/h33.3 km/hClear
2:56 PM12 °C-8 °C24 %1011.2 hPa16.1 kmWest (260°)27.8 km/h42.6 km/hClear
4:56 PM11 °C-7 °C28 %1012.9 hPa16.1 kmWest (280°)13 km/h35.2 km/hClear
5:56 PM9 °C-6 °C34 %1014.2 hPa16.1 kmENE (70°)7.4 km/hClear
6:56 PM7 °C-5 °C43 %1015.6 hPa16.1 kmCalmClear
7:56 PM5 °C-4 °C53 %1016.3 hPa16.1 kmSW (230°)5.6 km/hClear
8:15 PM5.6 °C-3.7 °C52 %1016.6 hPa16.1 kmWSW (240°)5.6 km/hClear
8:35 PM5.6 °C-4.1 °C50 %1016.9 hPa16.1 kmWSW (240°)7.4 km/hClear
8:55 PM5.1 °C-4.2 °C51 %1016.9 hPa16.1 kmWSW (240°)5.6 km/hClear
9:15 PM4.8 °C-3.7 °C54 %1016.9 hPa16.1 kmCalmClear
9:35 PM4.5 °C-4 °C54 %1017.3 hPa16.1 kmWSW (240°)5.6 km/hClear
9:55 PM4.3 °C-3.3 °C58 %1017.3 hPa16.1 kmCalmClear
10:15 PM3.7 °C-3.7 °C59 %1017.3 hPa16.1 kmCalmClear
10:35 PM3.5 °C-3.5 °C61 %1017.6 hPa16.1 kmCalmClear
11:15 PM2 °C-2.9 °C70 %1017.6 hPa16.1 kmCalmClear
11:35 PM2 °C-2.9 °C70 %1017.6 hPa16.1 kmCalmClear
11:55 PM1 °C-2.5 °C78 %1017.9 hPa16.1 kmSSW (200°)5.6 km/hClear
Hourly data recorded from KISO, located 0 kilometers away from Kinston, North Carolina







STORIES FROM OUR PARTNERS